IRS-P6 (RESOURCESAT-1)

Last updated on Wed Sep 17 2025 00:02:30 GMT+0000 (Coordinated Universal Time)

1 28051U 03046A 25259.62977616 .00000126 00000+0 55863-4 0 9995 2 28051 98.2320 304.0060 0065414 83.1905 30.0519 14.36016410141269
UTC large
Height (km)
Speed (km/s)
/
Latitude / Longitude
Inclination (degrees)
Orbital Period (minutes)
Azimuth
Elevation
Range (km)
Doppler Factor

Next 0 passes for location: London (51.5072 / 0.1276)

Sorry there are no passes over London.